Weather History for O'Neill, NE

Change the Weather History Date:

Tuesday, April 23, 2013

  Actual Average Record
Temperature  
Mean Temperature 28 °F -  
Max Temperature 37 °F 66 °F 100 °F (1989)
Min Temperature 19 °F 37 °F 19 °F (2013)
Degree Days  
Heating Degree Days 37    
Moisture  
Dew Point 21 °F    
Average Humidity 73    
Maximum Humidity 87    
Minimum Humidity 52    
Precipitation  
Precipitation 0.02 in - - ()
Sea Level Pressure  
Sea Level Pressure 30.24 in    
Wind  
Wind Speed 12 mph (NNW)    
Max Wind Speed 17 mph    
Max Gust Speed 26 mph    
Visibility 10 miles    
Events      
Averages and records for this station are not official NWS values.
T = Trace of Precipitation, MM = Missing Value Source: NWS Daily Summary

Daily Weather History Graph

Daily Weather History Graph

Search for Another Location

Airport:

Trip Planner

Search our weather history database for the weather conditions in past years. The results will help you decide how hot, cold, wet, or windy it might be!

Date:

Astronomy

Apr. 23, 2013 Rise Set
Actual Time 6:40 AM CDT 8:25 PM CDT
Civil Twilight 6:10 AM CDT 8:55 PM CDT
Nautical Twilight 5:34 AM CDT 9:32 PM CDT
Astronomical Twilight 4:55 AM CDT 10:11 PM CDT
Moon 6:20 PM CDT (4/23) 5:12 AM CDT (4/23)
Length of Visible Light 14h 45m
Length of Day
13h 45m
Waxing Gibbous, 94% of the Moon is Illuminated
Apr 23
Waxing Gibbous
Apr 25
Full
May 2
Last Quarter
May 9
New
May 17
First Quarter

Hourly Weather History & Observations

Time (CDT) Temp. Windchill Dew Point Humidity Pressure Visibility Wind Dir Wind Speed Gust Speed Precip Events Conditions
12:15 AM 29.7 °F 18.2 °F 24.8 °F 82% 30.32 in 10.0 mi North 16.1 mph 20.7 mph N/A   Overcast
12:35 AM 29.3 °F 18.6 °F 24.8 °F 83% 30.31 in 10.0 mi North 13.8 mph - N/A   Overcast
12:58 AM 28.4 °F 17.0 °F 24.8 °F 86% 30.33 in 10.0 mi NNW 15.0 mph 18.4 mph N/A   Overcast
1:15 AM 29.3 °F 17.7 °F 23.4 °F 78% 30.32 in 10.0 mi NNW 16.1 mph - N/A   Overcast
1:35 AM 28.9 °F 17.3 °F 22.6 °F 77% 30.29 in 10.0 mi North 16.1 mph - N/A   Overcast
1:55 AM 28.8 °F 17.0 °F 21.7 °F 75% 30.30 in 10.0 mi North 16.1 mph 26.5 mph N/A   Overcast
2:15 AM 28.4 °F 18.5 °F 21.7 °F 76% 30.31 in 10.0 mi North 11.5 mph 18.4 mph N/A   Overcast
2:35 AM 28.4 °F 19.7 °F 22.5 °F 78% 30.31 in 10.0 mi North 9.2 mph - N/A   Mostly Cloudy
2:55 AM 27.3 °F 17.7 °F 23.0 °F 84% 30.30 in 10.0 mi NNW 10.4 mph - N/A   Mostly Cloudy
3:15 AM 26.6 °F 15.7 °F 22.3 °F 84% 30.29 in 10.0 mi NNW 12.7 mph - N/A   Scattered Clouds
3:35 AM 25.7 °F 14.6 °F 21.6 °F 84% 30.28 in 10.0 mi NNW 12.7 mph - N/A   Clear
3:55 AM 25.2 °F 14.4 °F 21.2 °F 85% 30.29 in 10.0 mi NW 11.5 mph - N/A   Clear
4:15 AM 24.8 °F 13.4 °F 20.3 °F 83% 30.29 in 10.0 mi NNW 12.7 mph - N/A   Clear
4:35 AM 24.3 °F 13.3 °F 19.9 °F 84% 30.29 in 10.0 mi NNW 11.5 mph - N/A   Clear
4:55 AM 23.0 °F 12.4 °F 19.4 °F 86% 30.28 in 10.0 mi NNW 10.4 mph - N/A   Clear
5:15 AM 23.0 °F 11.7 °F 19.0 °F 85% 30.29 in 10.0 mi NW 11.5 mph - N/A   Clear
5:35 AM 22.3 °F 12.2 °F 18.5 °F 85% 30.29 in 10.0 mi NW 9.2 mph - N/A   Clear
5:55 AM 21.0 °F 9.9 °F 17.6 °F 87% 30.29 in 10.0 mi NW 10.4 mph - N/A   Clear
6:15 AM 21.0 °F 9.9 °F 17.8 °F 87% 30.28 in 10.0 mi NW 10.4 mph - N/A   Clear
6:35 AM 19.9 °F 7.9 °F 16.7 °F 87% 30.27 in 10.0 mi NW 11.5 mph - N/A   Clear
6:55 AM 19.9 °F 8.6 °F 16.7 °F 87% 30.28 in 10.0 mi NW 10.4 mph - N/A   Clear
7:15 AM 19.4 °F 7.9 °F 16.2 °F 87% 30.27 in 10.0 mi NNW 10.4 mph - N/A   Clear
7:35 AM 19.4 °F 6.6 °F 15.8 °F 86% 30.28 in 10.0 mi NNW 12.7 mph - N/A   Clear
7:55 AM 20.1 °F 8.8 °F 16.5 °F 86% 30.30 in 10.0 mi NNW 10.4 mph - N/A   Clear
8:15 AM 20.7 °F 9.5 °F 16.7 °F 85% 30.29 in 10.0 mi NNW 10.4 mph - N/A   Clear
8:35 AM 21.2 °F 11.7 °F 17.4 °F 85% 30.29 in 10.0 mi NNW 8.1 mph - N/A   Clear
8:55 AM 21.6 °F 11.3 °F 17.4 °F 84% 30.30 in 10.0 mi NNW 9.2 mph - N/A   Clear
9:15 AM 22.3 °F 10.8 °F 17.6 °F 82% 30.29 in 10.0 mi NNW 11.5 mph - N/A   Clear
9:35 AM 23.7 °F 11.5 °F 18.0 °F 79% 30.30 in 10.0 mi NNW 13.8 mph - N/A   Clear
9:55 AM 23.7 °F 12.1 °F 17.8 °F 78% 30.30 in 10.0 mi NNW 12.7 mph - N/A   Clear
10:15 AM 24.6 °F 12.2 °F 18.1 °F 76% 30.29 in 10.0 mi NNW 15.0 mph - N/A   Clear
10:35 AM 25.3 °F 13.1 °F 18.1 °F 74% 30.28 in 10.0 mi NNW 15.0 mph - N/A   Clear
10:55 AM 26.4 °F 14.5 °F 18.5 °F 72% 30.28 in 10.0 mi NNW 15.0 mph - N/A   Clear
11:15 AM 26.6 °F 14.7 °F 18.7 °F 72% 30.28 in 10.0 mi NNW 15.0 mph - N/A   Clear
11:35 AM 28.2 °F 17.2 °F 18.7 °F 67% 30.28 in 10.0 mi NNW 13.8 mph - N/A   Clear
11:55 AM 28.4 °F 17.0 °F 18.7 °F 67% 30.27 in 10.0 mi North 15.0 mph - N/A   Clear
12:15 PM 28.9 °F 17.7 °F 18.5 °F 65% 30.26 in 10.0 mi NNW 15.0 mph - N/A   Clear
12:35 PM 29.7 °F 20.1 °F 19.0 °F 65% 30.26 in 10.0 mi NNW 11.5 mph - N/A   Clear
12:55 PM 30.2 °F 19.3 °F 19.4 °F 64% 30.26 in 10.0 mi NNW 15.0 mph 19.6 mph 0.01 in   Clear
1:15 PM 31.3 °F 21.6 °F 19.9 °F 63% 30.25 in 10.0 mi NNW 12.7 mph - N/A   Clear
1:35 PM 31.8 °F 21.0 °F 20.5 °F 63% 30.24 in 10.0 mi NNW 16.1 mph - 0.01 in   Scattered Clouds
1:55 PM 32.0 °F 22.1 °F 20.1 °F 62% 30.23 in 10.0 mi NNW 13.8 mph - 0.01 in   Scattered Clouds
2:15 PM 32.0 °F 21.6 °F 21.4 °F 65% 30.22 in 10.0 mi NNW 15.0 mph - N/A   Scattered Clouds
2:35 PM 32.2 °F 23.8 °F 22.1 °F 66% 30.22 in 10.0 mi NNW 10.4 mph 13.8 mph N/A   Mostly Cloudy
2:55 PM 33.3 °F 23.7 °F 23.7 °F 68% 30.22 in 10.0 mi NNW 13.8 mph - N/A   Mostly Cloudy
3:15 PM 33.3 °F 24.6 °F 21.6 °F 62% 30.22 in 10.0 mi NW 11.5 mph - N/A   Mostly Cloudy
3:35 PM 34.0 °F 26.0 °F 23.5 °F 66% 30.21 in 10.0 mi NNW 10.4 mph 18.4 mph N/A   Mostly Cloudy
3:55 PM 34.7 °F 25.1 °F 22.6 °F 61% 30.21 in 10.0 mi NW 15.0 mph - N/A   Mostly Cloudy
4:15 PM 35.8 °F 26.5 °F 23.9 °F 62% 30.20 in 10.0 mi NNW 15.0 mph 19.6 mph N/A   Mostly Cloudy
4:35 PM 35.2 °F 25.0 °F 21.9 °F 58% 30.19 in 10.0 mi NNW 17.3 mph - N/A   Scattered Clouds
4:55 PM 36.9 °F 27.5 °F 23.5 °F 59% 30.19 in 10.0 mi NW 16.1 mph - N/A   Scattered Clouds
5:15 PM 36.9 °F 28.7 °F 22.3 °F 56% 30.19 in 10.0 mi NNW 12.7 mph 17.3 mph N/A   Scattered Clouds
5:35 PM 37.0 °F 27.7 °F 21.0 °F 52% 30.19 in 10.0 mi NNW 16.1 mph 20.7 mph N/A   Scattered Clouds
5:55 PM 36.5 °F 28.2 °F 20.3 °F 52% 30.18 in 10.0 mi NNW 12.7 mph - N/A   Scattered Clouds
6:15 PM 37.2 °F 28.7 °F 20.8 °F 52% 30.18 in 10.0 mi NNW 13.8 mph 19.6 mph N/A   Scattered Clouds
6:35 PM 37.2 °F 29.6 °F 21.0 °F 52% 30.17 in 10.0 mi NNW 11.5 mph 20.7 mph N/A   Clear
6:55 PM 36.9 °F 28.7 °F 20.8 °F 52% 30.17 in 10.0 mi NNW 12.7 mph - N/A   Clear
7:15 PM 36.5 °F 27.8 °F 20.3 °F 52% 30.17 in 10.0 mi NW 13.8 mph - N/A   Clear
7:35 PM 35.8 °F 27.8 °F 21.2 °F 55% 30.17 in 10.0 mi NNW 11.5 mph - N/A   Clear
7:55 PM 34.9 °F 27.1 °F 21.2 °F 57% 30.17 in 10.0 mi NNW 10.4 mph - N/A   Clear
8:15 PM 33.1 °F 26.9 °F 22.1 °F 64% 30.17 in 10.0 mi NNW 6.9 mph - N/A   Clear
8:35 PM 31.8 °F 26.2 °F 22.3 °F 68% 30.17 in 10.0 mi NW 5.8 mph - N/A   Clear
8:55 PM 31.5 °F 25.8 °F 22.1 °F 68% 30.18 in 10.0 mi NW 5.8 mph - N/A   Clear
9:15 PM 30.9 °F 25.2 °F 21.7 °F 69% 30.18 in 10.0 mi NW 5.8 mph - N/A   Clear
9:35 PM 31.6 °F 28.3 °F 23.0 °F 70% 30.18 in 10.0 mi WNW 3.5 mph - N/A   Clear
9:55 PM 30.6 °F - 23.0 °F 74% 30.18 in 10.0 mi Calm Calm - N/A   Clear
10:15 PM 30.4 °F - 22.6 °F 73% 30.19 in 10.0 mi Calm Calm - N/A   Clear
10:35 PM 29.3 °F - 22.8 °F 77% 30.19 in 10.0 mi Calm Calm - N/A   Clear
10:55 PM 28.8 °F 25.0 °F 23.0 °F 79% 30.18 in 10.0 mi SW 3.5 mph - N/A   Clear
11:15 PM 27.5 °F 23.6 °F 22.5 °F 81% 30.18 in 10.0 mi SW 3.5 mph - N/A   Clear
11:35 PM 26.4 °F 20.9 °F 21.9 °F 83% 30.17 in 10.0 mi WSW 4.6 mph - N/A   Clear
11:55 PM 25.9 °F 19.2 °F 20.5 °F 80% 30.17 in 10.0 mi WSW 5.8 mph - N/A   Clear